Location: *
(45.0692°N, 0.0967°W)
Time: 08:13:06
(UTC+00:00)

Daily predictions for brighter satellites

Satellite Brightness Start Highest point End
(mag) Time Altitude Azimuth Time Altitude Azimuth Time Altitude Azimuth
Timation 2 Rocket 4.1 18:21:39 10° SSW 18:28:12 68° ESE 18:34:30 10° NNE
COSMO-SKYMED 1 3.2 18:28:45 10° N 18:33:03 63° WNW 18:37:20 10° SSW
Cosmos 1300 Rocket 3.5 18:28:59 10° S 18:33:17 79° E 18:37:37 10° NNE
COSMOS 2428 2.8 18:28:17 10° NNW 18:33:55 60° ENE 18:39:31 10° SE
Cosmos 1743 4.0 18:31:03 10° SSW 18:34:47 48° WNW 18:38:33 10° N
Cosmos 2322 3.9 18:29:16 10° NNW 18:35:02 81° WSW 18:40:44 10° SSE
NOAA 11 4.4 18:29:48 10° SSE 18:35:09 56° ENE 18:40:31 10° N
Aureole 1 Rocket 3.2 18:30:02 10° NNW 18:35:18 63° ENE 18:39:15 10° SSE
Cosmos 2251 Rocket 3.6 18:29:59 10° NNW 18:35:24 90° N 18:40:47 10° SSE
H-2A R/B 3.5 18:34:14 10° E 18:37:27 18° ENE 18:40:41 10° NNE
ISS -1.6 18:36:25 10° SSE 18:37:40 12° SE 18:38:56 10° ESE
Cosmos 2360 Rocket 3.4 18:33:11 10° NW 18:38:34 46° WSW 18:43:56 10° S
Cosmos 2151 Rocket 3.6 18:35:24 10° S 18:39:48 89° E 18:44:14 10° N
CZ-2D R/B 3.2 18:39:53 10° SSE 18:43:39 70° ENE 18:47:27 10° N
Cosmos 1939 Rocket 2.8 18:41:00 10° SSE 18:44:48 61° ENE 18:48:38 10° N
Lacrosse 5 rocket 3.0 18:48:36 10° SE 18:49:42 11° ESE 18:49:55 11° ESE
SAR-Lupe-2 4.2 18:49:21 10° NNE 18:52:38 33° E 18:55:54 10° SSE
Cosmos 1544 3.0 18:49:48 10° S 18:53:19 57° E 18:56:53 10° NNE
Cosmos 2227 Rocket 3.3 18:49:20 10° SE 18:53:21 20° E 18:57:24 10° NE
Cosmos 2219 3.8 18:49:25 10° S 18:54:36 36° ESE 18:59:47 10° NE
Cosmos 2074 Rocket 4.1 18:48:50 10° N 18:55:07 83° W 19:01:19 10° S
Meteor 2-9 Rocket 4.4 18:51:57 10° SSW 18:57:43 82° WNW 19:03:23 10° N
ARGOS 4.2 18:53:48 11° ESE 18:58:00 26° ENE 19:02:25 10° N
Cosmos 2341 Rocket 4.4 18:53:26 10° N 18:59:18 40° ENE 19:05:05 10° SE
Cosmos 1842 4.2 18:58:30 10° NNW 19:02:22 53° W 19:06:12 10° S
CZ-2C R/B 4.1 18:58:22 10° NNE 19:02:31 37° E 19:06:37 10° SSE
Cosmos 389 Rocket 3.4 18:59:35 10° NNE 19:02:35 27° ENE 19:04:29 17° ESE
Cosmos 2297 Rocket 3.1 18:59:22 10° SSE 19:03:58 26° ESE 19:08:33 10° NE
Meteor 1-12 Rocket 4.3 19:00:48 10° S 19:06:33 87° WNW 19:12:14 10° N
GEOS 3 Rocket 3.5 19:01:39 10° SE 19:06:46 82° NE 19:11:54 10° NW
Ariane Rocket 3.2 19:04:04 10° S 19:09:07 77° WSW 19:14:14 10° NNW
NOSS 3-4 (A) 3.9 19:06:43 10° NW 19:13:44 77° NE 19:20:46 13° SE
NOSS 3-4 (C) 3.9 19:06:49 10° NW 19:13:50 77° NE 19:20:50 13° SE
FREGAT/IRIS 2.3 19:11:15 11° SSE 19:13:54 68° ENE 19:16:42 10° N
Cosmos 1437 Rocket 4.4 19:11:57 10° NNE 19:14:22 16° ENE 19:14:27 16° ENE
Cosmos 405 Rocket 3.5 19:11:15 10° SSE 19:14:23 28° E 19:17:35 10° NNE
Cosmos 614 Rocket 4.3 19:09:44 10° N 19:14:47 46° ENE 19:18:31 17° SE
EO 1 Delta rocket 4.5 19:10:32 10° SSE 19:17:21 68° ENE 19:22:44 10° N
Cosmos 2056 Rocket 4.0 19:13:48 10° S 19:18:49 40° ESE 19:23:50 10° NE
HJ-1C 3.8 19:15:33 10° S 19:18:54 65° W 19:22:16 10° NNW
Okean 1 Rocket 3.1 19:14:51 10° S 19:19:11 80° W 19:23:34 10° N
Cosmos 2154 Rocket 4.0 19:13:04 10° N 19:19:18 89° W 19:25:30 10° S
Cosmos 407 Rocket 3.6 19:16:21 10° NNW 19:21:24 55° ENE 19:25:02 18° SE
Cosmos 2333 Rocket 2.9 19:21:42 10° NW 19:27:16 55° WSW 19:32:50 10° S
Meteor 1-4 Rocket 2.9 19:24:46 10° N 19:28:10 41° ENE 19:29:05 34° ESE
Resurs 01 Rocket 2.7 19:29:23 25° E 19:30:15 26° ENE 19:33:58 10° N
Cosmos 1624 Rocket 4.1 19:25:40 10° S 19:30:41 51° ESE 19:35:42 10° NNE
Cosmos 1441 Rocket 4.2 19:27:08 10° SSW 19:30:49 48° WNW 19:34:30 10° N
In-Cosmos 22 4.1 19:25:38 10° N 19:30:57 60° ENE 19:35:25 15° SSE
SL-8 Rocket 4.2 19:25:25 10° N 19:31:26 50° ENE 19:35:53 18° SE
CZ-2C R/B 3.9 19:29:59 24° ESE 19:32:00 32° ENE 19:36:50 10° N
Cosmos 2237 Rocket 2.2 19:28:59 10° NNW 19:34:42 70° ENE 19:38:28 22° SE
GP-B 4.3 19:30:36 10° N 19:34:49 44° W 19:39:01 10° SSW
ADEOS Rocket 3.7 19:28:25 10° NNE 19:35:33 49° E 19:43:01 10° S
SL-8 R/B 4.1 19:32:08 10° W 19:36:53 60° N 19:39:51 22° ENE
BREEZE-M DEB (TANK) 4.0 19:25:29 10° WNW 19:39:52 90° WNW 19:41:49 33° ESE
Cosmos 1674 3.9 19:37:20 10° NNE 19:39:57 26° ENE 19:39:57 26° ENE
Cosmos 1954 Rocket 4.4 19:38:11 10° N 19:43:11 43° ENE 19:44:49 33° ESE
Cosmos 1980 3.6 19:38:24 10° NNW 19:44:06 87° ENE 19:47:47 23° SSE
SPOT 3 Rocket 3.5 19:41:14 14° SSE 19:45:45 88° ENE 19:50:57 10° NNW
Cosmos 1140 Rocket 3.5 19:40:41 10° NNW 19:45:50 59° ENE 19:47:56 34° SE
USA 186 2.3 19:44:30 20° S 19:46:40 63° W 19:50:05 10° NNW
Meteor 2-5 Rocket 3.8 19:44:54 10° N 19:50:40 60° ENE 19:53:38 29° SE
Cosmos 1892 Rocket 3.5 19:49:41 10° N 19:54:10 88° W 19:56:34 27° S
NOSS 0 Rocket 4.4 19:48:11 10° NNW 19:54:18 61° WSW 19:59:31 14° S
Cosmos 1707 4.0 19:52:09 10° NNW 19:55:51 40° W 19:59:32 10° SSW
ATLAS 2AS CENTAUR R/B 3.7 19:49:56 10° NW 19:57:05 46° WSW 20:03:36 10° S
ASTEX 1 4.0 19:52:24 10° N 19:57:12 56° W 20:01:57 10° SSW
Cosmos 1371 Rocket 4.2 19:56:30 10° SSW 20:01:48 77° WNW 20:07:12 10° NNE
Okean 1-7 Rocket 3.9 19:59:45 10° NNW 20:04:10 67° W 20:06:44 24° S
SJ-6B 3.7 20:02:27 18° S 20:05:16 50° W 20:09:16 10° NNW
SL-16 R/B 2.5 19:59:53 10° NNW 20:05:25 49° ENE 20:06:31 43° E
ERBS 3.8 20:05:45 10° NW 20:08:14 29° N 20:08:14 29° N
Cosmos 2219 Rocket 4.1 20:05:04 10° NW 20:09:36 26° WSW 20:14:07 10° SSW
ISS -2.1 20:10:35 10° SW 20:12:14 27° SW 20:12:14 27° SW
Cosmos 676 Rocket 3.9 20:10:23 10° NNW 20:15:41 86° ENE 20:16:52 55° SSE
H-2A R/B 2.2 20:13:51 29° S 20:16:19 67° WSW 20:21:20 10° NNW
Cosmos 2082 3.6 20:14:07 10° S 20:19:45 64° ESE 20:25:26 10° NNE
CZ-2C R/B 4.1 20:15:18 10° NNE 20:17:56 24° NE 20:17:56 24° NE
Cosmos 1766 4.2 20:25:17 40° N 20:25:17 40° N 20:27:53 10° N
Lacrosse 5 rocket 3.2 20:24:33 10° SW 20:25:41 19° SW 20:25:41 19° SW
MetOp-B 4.2 20:33:25 59° ENE 20:33:25 59° ENE 20:38:27 10° N
Cosmos 1544 Rocket 4.1 20:32:51 42° SW 20:34:06 59° WNW 20:38:32 10° N
Cosmos 1455 Rocket 4.0 20:31:38 18° SW 20:34:42 47° WNW 20:39:02 10° N
Cosmos 2227 Rocket 2.5 20:31:15 10° SW 20:36:51 64° WNW 20:42:31 10° NNE
ARGOS 4.0 20:35:20 27° SSW 20:38:00 47° W 20:43:12 10° NNW
DELTA 2 R/B (1) 4.4 20:38:03 10° WSW 20:42:00 38° SSW 20:42:00 38° SSW
Cosmos 2084 Rocket 4.1 20:39:57 10° SW 20:44:15 55° NW 20:44:15 55° NW
Cosmos 2297 Rocket 3.0 20:42:10 10° SW 20:47:40 51° WNW 20:53:12 10° NNE
Terra 4.0 20:49:57 16° NNE 20:49:57 16° NNE 20:51:18 10° NNE
Cosmos 1850 Rocket 4.4 20:42:52 10° NNW 20:47:06 54° NNE 20:47:06 54° NNE
Cosmos 1437 Rocket 4.4 20:47:16 10° NNW 20:49:52 32° WNW 20:49:52 32° WNW
Nadezhda 3 Rocket 4.1 20:57:56 60° NE 20:57:56 60° NE 21:03:07 10° NNE
Resurs 01 Rocket 3.1 21:06:58 33° W 21:06:58 33° W 21:10:40 10° NNW
Cosmos 1943 4.4 21:02:46 10° NNW 21:06:39 32° NNE 21:06:39 32° NNE
RESURS DK-1 4.5 21:06:34 10° NNW 21:08:17 24° NNW 21:08:17 24° NNW
CZ-2C R/B 4.2 21:11:03 36° WSW 21:11:45 37° W 21:16:49 10° NNW
Cosmos 1821 Rocket 4.1 21:09:16 10° N 21:14:37 69° NNW 21:14:37 69° NNW
USA 234 4.4 21:16:03 28° NE 21:18:03 34° N 21:23:47 10° NW
Cosmos 2237 Rocket 4.4 21:14:20 10° WNW 21:18:09 19° W 21:20:19 15° SW
ERS-1 Rocket 4.3 21:20:39 34° N 21:20:39 34° N 21:23:28 10° N
SL-16 R/B 3.9 21:44:32 10° NW 21:48:25 26° W 21:48:25 26° W
CZ-2C R/B 4.1 21:55:30 10° N 21:59:26 35° NW 21:59:26 35° NW
CZ-4C R/B 4.0 22:59:20 10° NNW 23:03:41 36° N 23:03:41 36° N
